Point Mugu NAWC, CA

6:25 PM PST on February 24, 2017 (GMT -0800)
Point Mugu Naval Air Station

Weather History for KNTD - January, 2013

Change the Weather History Date:

Wednesday, January 16, 2013

  Actual Average Record
Temperature  
Mean Temperature 54 °F -  
Max Temperature 66 °F 61 °F 89 °F (2014)
Min Temperature 43 °F 45 °F 35 °F (2001)
Degree Days  
Heating Degree Days 10    
Growing Degree Days 4 (Base 50)    
Moisture  
Dew Point 40 °F    
Average Humidity 56    
Maximum Humidity 87    
Minimum Humidity 24    
Precipitation  
Precipitation 0.00 in - - ()
Sea Level Pressure  
Sea Level Pressure 30.26 in    
Wind  
Wind Speed 6 mph (NNW)    
Max Wind Speed 17 mph    
Max Gust Speed 26 mph    
Visibility 7 miles    
Events      
Averages and records for this station are not official NWS values.
T = Trace of Precipitation, MM = Missing Value Source: NWS Daily Summary

Daily Weather History Graph

Daily Weather History Graph

Search for Another Location

Airport or City:

Trip Planner

Search our weather history database for the weather conditions in past years. The results will help you decide how hot, cold, wet, or windy it might be!

Date:

Astronomy

Jan. 16, 2013 Rise Set
Actual Time 7:01 AM PST 5:11 PM PST
Civil Twilight 6:34 AM PST 5:38 PM PST
Nautical Twilight 6:03 AM PST 6:09 PM PST
Astronomical Twilight 5:33 AM PST 6:39 PM PST
Moon 9:57 AM PST (1/16) 10:49 PM PST (1/16)
Length of Visible Light 11h 04m
Length of Day
10h 09m
Waxing Crescent, 29% of the Moon is Illuminated
Jan 16
Waxing Crescent
Jan 18
First Quarter
Jan 26
Full
Feb 3
Last Quarter
Feb 9
New

Hourly Weather History & Observations

Time (PST) Temp. Windchill Dew Point Humidity Pressure Visibility Wind Dir Wind Speed Gust Speed Precip Events Conditions
12:54 AM 46.0 °F 44.8 °F 39.0 °F 76% 30.36 in - NNW 3.5 mph - N/A   Clear
1:54 AM 45.0 °F 41.2 °F 39.0 °F 80% 30.36 in - NW 6.9 mph - N/A   Clear
2:54 AM 44.1 °F 40.1 °F 37.0 °F 76% 30.36 in - NNW 6.9 mph - N/A   Clear
3:54 AM 45.0 °F 41.8 °F 37.9 °F 76% 30.36 in - North 5.8 mph - N/A   Clear
4:54 AM 44.1 °F 42.5 °F 37.0 °F 76% 30.34 in - WNW 3.5 mph - N/A   Clear
5:54 AM 46.4 °F 44.3 °F 32.0 °F 57% 30.33 in 7.0 mi WNW 4.6 mph - N/A   Scattered Clouds
6:54 AM 43.0 °F - 31.1 °F 63% 30.34 in 7.0 mi Calm Calm - N/A   Partly Cloudy
7:54 AM 53.1 °F - 27.5 °F 37% 30.35 in 7.0 mi NNE 5.8 mph - N/A   Partly Cloudy
8:54 AM 60.1 °F - 29.5 °F 31% 30.35 in 7.0 mi NNE 9.2 mph - N/A   Partly Cloudy
9:54 AM 66.0 °F - 30.0 °F 26% 30.34 in 7.0 mi Calm Calm - N/A   Partly Cloudy
10:54 AM 63.0 °F - 47.1 °F 56% 30.31 in 7.0 mi SSE 9.2 mph - N/A   Partly Cloudy
11:54 AM 61.0 °F - 47.1 °F 60% 30.28 in 7.0 mi South 8.1 mph - N/A   Partly Cloudy
12:54 PM 64.0 °F - 45.1 °F 50% 30.23 in 7.0 mi SW 5.8 mph - N/A   Clear
1:28 PM 64.4 °F - 46.4 °F 52% 30.20 in 7.0 mi NE 10.4 mph 18.4 mph N/A   Clear
1:54 PM 65.3 °F - 43.9 °F 46% 30.20 in 7.0 mi West 6.9 mph - N/A   Clear
2:54 PM 65.1 °F - 38.5 °F 37% 30.19 in 7.0 mi WNW 11.5 mph 18.4 mph N/A   Clear
3:54 PM 63.3 °F - 39.9 °F 42% 30.19 in 7.0 mi NW 9.2 mph - N/A   Clear
4:54 PM 63.1 °F - 40.3 °F 43% 30.19 in 7.0 mi NW 11.5 mph - N/A   Clear
5:54 PM 57.0 °F - 42.8 °F 59% 30.20 in 7.0 mi Calm Calm - N/A   Clear
6:54 PM 56.1 °F - 42.8 °F 61% 30.19 in 7.0 mi NNW 3.5 mph - N/A   Clear
7:54 PM 58.3 °F - 50.0 °F 74% 30.18 in 7.0 mi North 13.8 mph 20.7 mph N/A   Clear
8:54 PM 64.9 °F - 60.1 °F 84% 30.17 in - NNE 11.5 mph 20.7 mph N/A   Clear
9:54 PM 63.5 °F - 26.1 °F 24% 30.16 in 7.0 mi ENE 13.8 mph 20.7 mph N/A   Clear
10:54 PM 63.5 °F - 25.7 °F 24% 30.16 in 7.0 mi NE 17.3 mph 26.5 mph N/A   Clear
11:54 PM 64.0 °F - 60.1 °F 87% 30.15 in - NNE 9.2 mph - N/A   Clear